Location: Unspecified
(0.0000°N, 0.0000°E)
Time: 23:30:10
(UTC+00:00)

GONETS M 08 (M18) - Pass Details

Date: 26 May 2026
Orbit: 1470 x 1518 km, 82.5° (Epoch: 7 June)

Event Time Altitude Azimuth Distance (km) Brightness Sun altitude
Rises 03:31:01 0° 149° (SSE) 4,652 ? -33.7°
Reaches altitude 10° 03:35:19 10° 131° (SE) 3,674 ? -32.7°
Maximum altitude 03:40:37 17° 93° (E) 3,133 ? -31.5°
Drops below altitude 10° 03:45:52 10° 56° (NE) 3,674 ? -30.3°
Sets 03:50:05 0° 38° (NE) 4,651 ? -29.4°
